{"data":{"norad_id":51649,"intl_designator":"2022-012AD","name":"ONEWEB-0461","alt_names":[],"object_type":"PAYLOAD","status":"ACTIVE","operator":null,"country":"UK","launch_date":"2022-02-10","launch_site_code":"FRGUI","launch_vehicle":null,"mission":null,"orbit_class":"UNKNOWN","rcs_meters":null,"size_class":null,"mass_kg":null,"dimensions":null,"purposes":["comms"],"wikipedia_slug":null,"has_3d_model":false,"image_url":null,"decayed_at":null,"tle_current":{"epoch":"2026-05-25T03:28:04.134720Z","epoch_age_seconds":58625,"freshness":"FRESH","line1":"1 51649U 22012AD  26145.14449230  .00000031  00000+0  45976-4 0  9995","line2":"2 51649  87.9162  10.4376 0001733  89.1004 271.0326 13.17650899210853","mean_motion":13.17650899,"eccentricity":0.0001733,"inclination_deg":87.9162,"raan_deg":10.4376,"arg_perigee_deg":89.1004,"mean_anomaly_deg":271.0326,"bstar":4.5976e-5,"rev_number":21085,"period_min":109.28539578221,"perigee_km":1192.3937844331,"apogee_km":1195.0181852117,"semimajor_km":7571.8429848224,"source":"CELESTRAK","updated_at":"2026-05-25T13:38:22.582051Z"}}}